When you browse on this site, cookies collect data to enhance your experience and personalize the content and advertising you see.
Visit our Privacy Policy to learn more. By continuing to use the site, you agree to this use of cookies and data.
  • In Lithuania
  • List of Countries
  • For 7 days
  • Water Temperature
  • Weather Map
  • Weather Widgets
  • user-avatar
    Login

    Hourly Weather Muskatnyy

    Today, 23 August, Friday

    Time Temperature Precipitation Wind Pressure Humidity
    00:00 +28°C° 0 mm 5 mps 753 mmHg 43%
    01:00 +28°C° 0 mm 5 mps 753 mmHg 44%
    02:00 +27°C° 0 mm 5 mps 753 mmHg 45%
    03:00 +27°C° 0 mm 4 mps 753 mmHg 49%
    04:00 +26°C° 0 mm 4 mps 753 mmHg 49%
    05:00 +26°C° 0 mm 4 mps 753 mmHg 49%
    06:00 +25°C° 0 mm 5 mps 753 mmHg 49%
    07:00 +27°C° 0 mm 5 mps 754 mmHg 45%
    08:00 +28°C° 0 mm 5 mps 754 mmHg 41%
    09:00 +30°C° 0 mm 6 mps 754 mmHg 36%
    10:00 +33°C° 0 mm 6 mps 754 mmHg 33%
    11:00 +35°C° 0 mm 6 mps 754 mmHg 29%
    12:00 +38°C° 0 mm 6 mps 754 mmHg 25%
    13:00 +39°C° 0 mm 6 mps 754 mmHg 23%
    14:00 +40°C° 0 mm 6 mps 753 mmHg 21%
    15:00 +40°C° 0 mm 5 mps 753 mmHg 18%
    16:00 +40°C° 0 mm 5 mps 753 mmHg 19%
    17:00 +39°C° 0 mm 5 mps 753 mmHg 20%
    18:00 +37°C° 0 mm 5 mps 753 mmHg 21%
    19:00 +36°C° 0 mm 5 mps 753 mmHg 25%
    20:00 +34°C° 0 mm 5 mps 754 mmHg 30%
    21:00 +32°C° 0 mm 6 mps 754 mmHg 34%
    22:00 +30°C° 0 mm 6 mps 754 mmHg 36%
    23:00 +29°C° 0 mm 5 mps 754 mmHg 39%

    Tomorrow, 24 August, Saturday

    Time Temperature Precipitation Wind Pressure Humidity
    00:00 +29°C° 0 mm 5 mps 753 mmHg 41%
    01:00 +28°C° 0 mm 5 mps 754 mmHg 43%
    02:00 +27°C° 0 mm 5 mps 754 mmHg 45%
    03:00 +27°C° 0 mm 5 mps 754 mmHg 47%
    04:00 +26°C° 0 mm 5 mps 754 mmHg 48%
    05:00 +26°C° 0 mm 6 mps 754 mmHg 48%
    06:00 +26°C° 0 mm 6 mps 754 mmHg 49%
    07:00 +28°C° 0 mm 6 mps 754 mmHg 45%
    08:00 +30°C° 0 mm 7 mps 754 mmHg 40%
    09:00 +32°C° 0 mm 7 mps 754 mmHg 35%
    10:00 +34°C° 0 mm 7 mps 754 mmHg 32%
    11:00 +36°C° 0 mm 7 mps 754 mmHg 28%
    12:00 +39°C° 0 mm 6 mps 754 mmHg 24%
    13:00 +39°C° 0 mm 7 mps 754 mmHg 23%
    14:00 +40°C° 0 mm 7 mps 754 mmHg 23%
    15:00 +40°C° 0 mm 7 mps 754 mmHg 22%
    16:00 +39°C° 0 mm 7 mps 753 mmHg 24%
    17:00 +38°C° 0 mm 7 mps 753 mmHg 26%
    18:00 +36°C° 0 mm 6 mps 753 mmHg 28%
    19:00 +35°C° 0 mm 6 mps 753 mmHg 32%
    20:00 +33°C° 0 mm 6 mps 754 mmHg 37%
    21:00 +32°C° 0 mm 6 mps 754 mmHg 41%
    22:00 +30°C° 0 mm 6 mps 754 mmHg 42%
    23:00 +29°C° 0 mm 6 mps 754 mmHg 44%

    Day after tomorrow, 25 August, Sunday

    Time Temperature Precipitation Wind Pressure Humidity
    00:00 +29°C° 0 mm 5 mps 754 mmHg 46%
    01:00 +27°C° 0.3 mm 5 mps 754 mmHg 51%
    02:00 +26°C° 0.3 mm 4 mps 754 mmHg 56%
    03:00 +25°C° 0.3 mm 4 mps 754 mmHg 62%
    04:00 +23°C° 0.3 mm 4 mps 754 mmHg 64%
    05:00 +23°C° 0.3 mm 4 mps 754 mmHg 66%
    06:00 +23°C° 0.3 mm 4 mps 754 mmHg 69%
    07:00 +25°C° 0 mm 4 mps 754 mmHg 63%
    08:00 +27°C° 0 mm 4 mps 754 mmHg 57%
    09:00 +28°C° 0 mm 5 mps 754 mmHg 51%
    10:00 +30°C° 0 mm 5 mps 754 mmHg 44%
    11:00 +33°C° 0 mm 4 mps 754 mmHg 37%
    12:00 +35°C° 0 mm 4 mps 754 mmHg 30%
    13:00 +36°C° 0 mm 4 mps 754 mmHg 28%
    14:00 +36°C° 0 mm 4 mps 754 mmHg 26%
    15:00 +37°C° 0 mm 4 mps 754 mmHg 24%
    16:00 +36°C° 0 mm 5 mps 754 mmHg 26%
    17:00 +36°C° 0 mm 5 mps 754 mmHg 28%
    18:00 +35°C° 0 mm 5 mps 754 mmHg 30%
    19:00 +32°C° 0 mm 5 mps 754 mmHg 36%
    20:00 +29°C° 0 mm 4 mps 755 mmHg 43%
    21:00 +27°C° 0 mm 3 mps 755 mmHg 49%
    22:00 +26°C° 0 mm 3 mps 756 mmHg 51%
    23:00 +25°C° 0 mm 3 mps 756 mmHg 53%

    26 August, Monday

    Time Temperature Precipitation Wind Pressure Humidity
    00:00 +25°C° 0 mm 3 mps 756 mmHg 55%
    01:00 +24°C° 0 mm 3 mps 756 mmHg 58%
    02:00 +24°C° 0 mm 2 mps 757 mmHg 60%
    03:00 +23°C° 0 mm 2 mps 757 mmHg 62%
    04:00 +23°C° 0 mm 2 mps 757 mmHg 61%
    05:00 +21°C° 0 mm 3 mps 757 mmHg 59%
    06:00 +21°C° 0 mm 3 mps 757 mmHg 57%
    07:00 +24°C° 0 mm 3 mps 757 mmHg 53%
    08:00 +25°C° 0 mm 4 mps 758 mmHg 48%
    09:00 +27°C° 0 mm 4 mps 758 mmHg 43%
    10:00 +28°C° 0 mm 4 mps 758 mmHg 40%
    11:00 +30°C° 0 mm 5 mps 758 mmHg 38%
    12:00 +32°C° 0 mm 5 mps 758 mmHg 36%
    13:00 +32°C° 0 mm 5 mps 758 mmHg 35%
    14:00 +32°C° 0 mm 5 mps 758 mmHg 35%
    15:00 +33°C° 0 mm 6 mps 757 mmHg 34%
    16:00 +32°C° 0 mm 6 mps 757 mmHg 35%
    17:00 +32°C° 0 mm 6 mps 757 mmHg 36%
    18:00 +30°C° 0 mm 5 mps 757 mmHg 37%
    19:00 +29°C° 0 mm 5 mps 757 mmHg 39%
    20:00 +27°C° 0 mm 5 mps 757 mmHg 42%
    21:00 +26°C° 0 mm 4 mps 758 mmHg 44%
    22:00 +25°C° 0 mm 5 mps 758 mmHg 43%
    23:00 +25°C° 0 mm 5 mps 758 mmHg 42%

    27 August, Tuesday

    Time Temperature Precipitation Wind Pressure Humidity
    00:00 +23°C° 0 mm 5 mps 758 mmHg 41%
    01:00 +22°C° 0 mm 5 mps 758 mmHg 41%
    02:00 +22°C° 0 mm 5 mps 757 mmHg 40%
    03:00 +21°C° 0 mm 4 mps 757 mmHg 40%
    04:00 +21°C° 0 mm 4 mps 757 mmHg 41%
    05:00 +20°C° 0 mm 4 mps 757 mmHg 42%
    06:00 +20°C° 0 mm 4 mps 757 mmHg 44%
    07:00 +22°C° 0 mm 4 mps 757 mmHg 40%
    08:00 +23°C° 0 mm 4 mps 757 mmHg 36%
    09:00 +26°C° 0 mm 5 mps 757 mmHg 33%
    10:00 +28°C° 0 mm 4 mps 757 mmHg 30%
    11:00 +29°C° 0 mm 4 mps 757 mmHg 28%
    12:00 +32°C° 0 mm 4 mps 757 mmHg 25%
    13:00 +32°C° 0 mm 4 mps 756 mmHg 24%
    14:00 +33°C° 0 mm 4 mps 756 mmHg 23%
    15:00 +33°C° 0 mm 3 mps 755 mmHg 21%
    16:00 +33°C° 0 mm 4 mps 755 mmHg 22%
    17:00 +32°C° 0 mm 4 mps 755 mmHg 22%
    18:00 +30°C° 0 mm 5 mps 755 mmHg 23%
    19:00 +28°C° 0 mm 4 mps 755 mmHg 25%
    20:00 +26°C° 0 mm 4 mps 755 mmHg 28%
    21:00 +24°C° 0 mm 3 mps 755 mmHg 30%
    22:00 +22°C° 0 mm 3 mps 756 mmHg 31%
    23:00 +22°C° 0 mm 3 mps 756 mmHg 32%

    28 August, Wednesday

    Time Temperature Precipitation Wind Pressure Humidity
    00:00 +21°C° 0 mm 3 mps 756 mmHg 33%
    01:00 +20°C° 0 mm 3 mps 756 mmHg 34%
    02:00 +20°C° 0 mm 2 mps 756 mmHg 34%
    03:00 +19°C° 0 mm 2 mps 756 mmHg 35%
    04:00 +19°C° 0 mm 2 mps 756 mmHg 36%
    05:00 +18°C° 0 mm 3 mps 756 mmHg 37%
    06:00 +18°C° 0 mm 3 mps 756 mmHg 38%
    07:00 +20°C° 0 mm 3 mps 756 mmHg 35%
    08:00 +24°C° 0 mm 3 mps 756 mmHg 31%
    09:00 +26°C° 0 mm 3 mps 757 mmHg 28%
    10:00 +27°C° 0 mm 3 mps 757 mmHg 26%
    11:00 +29°C° 0 mm 3 mps 757 mmHg 23%
    12:00 +30°C° 0 mm 3 mps 756 mmHg 21%
    13:00 +30°C° 0 mm 4 mps 756 mmHg 21%
    14:00 +32°C° 0 mm 4 mps 756 mmHg 21%
    15:00 +32°C° 0 mm 4 mps 755 mmHg 20%
    16:00 +32°C° 0 mm 4 mps 755 mmHg 23%
    17:00 +30°C° 0 mm 4 mps 755 mmHg 25%
    18:00 +29°C° 0 mm 4 mps 755 mmHg 27%
    19:00 +28°C° 0 mm 4 mps 755 mmHg 33%
    20:00 +26°C° 0 mm 4 mps 755 mmHg 39%
    21:00 +23°C° 0 mm 4 mps 756 mmHg 45%
    22:00 +23°C° 0 mm 4 mps 756 mmHg 48%
    23:00 +22°C° 0 mm 4 mps 756 mmHg 52%
    Show more